Location: *
(33.1214°S, 82.8148°E)
Time: 14:57:11
(UTC+00:00)

Daily predictions for brighter satellites

Satellite Brightness Start Highest point End
(mag) Time Altitude Azimuth Time Altitude Azimuth Time Altitude Azimuth
COSMO-SKYMED 1 3.2 12:02:44 10° N 12:07:02 62° W 12:11:25 10° SSW
Cosmos 923 Rocket 4.1 12:04:55 10° SSW 12:10:13 87° WNW 12:15:29 10° NNE
USA 238 DEB 4.5 12:09:35 10° N 12:17:03 42° ENE 12:24:11 10° SE
Cosmos 1626 Rocket 3.7 12:13:17 10° NNE 12:17:29 51° E 12:21:43 10° SSE
CZ-2C R/B 4.1 12:19:12 13° ESE 12:21:16 19° E 12:24:02 10° NE
SL-16 R/B 2.9 12:18:04 10° SSW 12:23:39 58° WNW 12:29:11 10° N
Cosmos 2058 3.6 12:22:59 10° NNW 12:27:02 56° W 12:31:09 10° S
Cosmos 2100 Rocket 4.3 12:22:08 10° NNE 12:27:57 45° E 12:33:53 10° SSE
BREEZE-M R/B 3.4 12:26:00 10° NNW 12:29:10 45° NE 12:33:07 17° ESE
Helios 1B rocket 3.7 12:28:46 18° ESE 12:29:43 19° E 12:32:37 10° NE
Helios 1A 3.1 12:25:59 10° N 12:30:05 78° W 12:34:15 10° SSW
Atlas Centaur 2 3.3 12:23:16 10° W 12:31:21 69° N 12:39:26 11° ENE
Cosmos 2173 Rocket 4.2 12:26:40 10° NNE 12:32:27 47° E 12:38:20 10° SSE
Cosmos 2263 Rocket 4.3 12:27:59 10° WNW 12:32:30 24° WSW 12:37:05 10° S
Cosmos 1461 3.4 12:29:02 10° N 12:32:44 37° ENE 12:35:02 20° ESE
USA 215 3.7 12:28:18 10° SE 12:34:47 61° SW 12:41:14 10° WNW
Cosmos 1544 2.5 12:35:16 10° N 12:38:01 73° W 12:40:49 10° S
Meteor 1-31 Rocket 3.7 12:36:44 22° ESE 12:38:02 27° E 12:41:18 10° NNE
Cosmos 1862 3.9 12:38:58 10° NNE 12:42:26 33° E 12:43:50 25° SE
Cosmos 2058 Rocket 3.7 12:39:42 10° SSW 12:44:02 57° W 12:48:19 10° N
Okean 1-7 Rocket 3.5 12:40:22 10° N 12:44:42 64° E 12:49:06 10° SSE
Cosmos 1725 Rocket 4.5 12:42:31 10° NNE 12:48:15 37° E 12:54:00 10° SSE
Cosmos 921 Rocket 3.1 12:45:26 10° S 12:49:43 54° ESE 12:54:01 10° NNE
CZ-4B R/B 4.3 12:50:05 23° SE 12:52:22 45° E 12:56:29 10° N
Timation 2 Rocket 4.2 12:46:53 10° N 12:52:29 43° ENE 12:55:47 24° SE
Meteor 2-2 Rocket 4.3 12:48:57 10° S 12:54:53 64° E 13:00:49 10° NNE
AQUARIUS 4.0 12:50:45 10° SSE 12:55:16 78° ENE 12:59:44 10° N
ASTRO E2 3.6 12:53:33 10° NW 12:56:40 29° NNE 12:57:22 27° NE
Cosmos 1943 3.1 12:54:05 10° SSW 12:59:51 81° ESE 13:05:34 10° NNE
Meteor 2-14 Rocket 4.4 12:53:52 10° S 13:00:06 79° E 13:06:16 10° N
Cosmos 1844 Rocket 2.8 12:54:54 10° NNW 13:00:30 77° WSW 13:05:56 11° SSE
Meteor 2-3 Rocket 3.8 12:57:27 10° NNW 13:03:09 78° W 13:08:52 10° S
Cosmos 1818 4.1 12:58:51 10° S 13:03:43 33° SE 13:03:43 33° SE
Cosmos 2150 Rocket 4.4 12:58:37 10° N 13:03:44 43° ENE 13:05:09 35° ESE
Cosmos 1459 Rocket 4.0 12:57:53 10° N 13:04:15 85° E 13:10:37 10° S
USA 267 4.2 13:03:46 25° SE 13:04:56 26° SSE 13:10:13 10° SSW
Cosmos 1802 Rocket 3.9 12:59:23 10° N 13:05:35 66° E 13:11:47 10° SSE
IKONOS-2 4.4 13:01:49 10° NNE 13:05:55 58° ESE 13:10:04 10° S
Meteor 2-15 4.3 12:59:58 10° N 13:06:05 81° E 13:12:16 10° S
Cosmos 1900 4.4 13:04:11 10° NNW 13:09:00 76° WSW 13:11:41 27° SSE
Cosmos 1844 3.8 13:03:38 10° NNW 13:09:17 75° WSW 13:13:54 16° SSE
Cosmos 1864 Rocket 4.5 13:03:10 10° N 13:09:24 63° E 13:15:44 10° SSE
Cosmos 1812 Rocket 3.5 13:05:26 10° S 13:09:55 64° E 13:14:21 10° NNE
Tiangong -1.6 13:08:30 10° WSW 13:11:00 51° SW 13:11:00 51° SW
SMAP 4.1 13:09:15 10° S 13:13:46 46° WSW 13:18:13 10° NW
Cosmos 1602 Rocket 4.1 13:09:43 10° NNW 13:14:02 57° W 13:18:23 10° S
Cosmos 2016 Rocket 3.9 13:09:58 10° N 13:16:15 67° E 13:22:34 10° SSE
NOAA 6 4.5 13:18:35 41° ENE 13:18:35 41° ENE 13:22:44 10° N
BREEZE-M DEB (TANK) 3.4 13:15:13 10° SW 13:17:59 38° SSE 13:17:59 38° SSE
Cosmos 1825 Rocket 3.4 13:16:54 10° N 13:21:03 69° ENE 13:21:03 69° ENE
Cosmos 1933 3.4 13:21:58 10° S 13:25:58 74° W 13:29:54 10° N
Meteor 2-15 Rocket 4.4 13:23:48 10° N 13:29:54 87° W 13:36:07 10° S
Cosmos 468 4.4 13:25:26 10° S 13:30:22 64° SE 13:30:22 64° SE
Cosmos 2298 Rocket 3.9 13:25:58 10° NNW 13:31:17 81° ENE 13:32:10 62° SSE
Cosmos-2242 4.4 13:28:09 10° SSW 13:32:07 38° W 13:36:01 10° NNW
Cosmos 2061 Rocket 3.9 13:27:00 10° N 13:33:07 66° E 13:34:51 47° SSE
Cosmos 1782 4.3 13:33:39 10° SSW 13:37:11 34° W 13:40:38 10° NNW
Cosmos 1867 3.5 13:32:00 10° NNW 13:37:23 81° WSW 13:38:15 63° S
GOES 2 Rocket 4.1 13:33:16 10° WNW 13:38:44 40° N 13:38:49 40° N
Cosmos 2233 Rocket 3.8 13:39:42 10° N 13:45:58 77° E 13:46:26 72° SE
NOSS 3-3 (A) 3.7 13:47:27 10° SSW 13:53:23 78° WNW 13:53:23 78° WNW
ADEOS Rocket 3.0 14:04:26 65° WNW 14:04:26 65° WNW 14:09:28 10° NNW
Atlas Centaur 2 3.7 14:12:45 10° W 14:20:32 43° NNW 14:21:42 41° N
CZ-3B Rocket 4.2 14:17:56 10° WNW 14:27:57 25° NNW 14:28:34 25° NNW
USA 59 Rocket 3.8 21:54:55 17° S 21:54:55 17° S 21:57:56 10° SSE
Cosmos 2333 Rocket 4.0 22:53:35 21° SSE 22:53:35 21° SSE 22:55:25 10° SSE
ARIANE 5 R/B 4.0 22:45:06 10° NNE 22:47:28 29° NNE 22:47:28 29° NNE
OAO 2 Rocket 3.9 23:01:06 52° ESE 23:01:06 52° ESE 23:04:55 10° E
Lacrosse 5 rocket 3.1 23:04:54 25° E 23:04:54 25° E 23:06:46 10° ESE
Centaur D-1AR AC-40 4.0 23:08:05 16° NNW 23:08:47 16° N 23:11:17 10° NE
ARGOS 4.3 23:04:30 10° N 23:07:22 31° NNW 23:07:22 31° NNW
SL-19 R/B 4.5 23:03:44 10° NNE 23:09:51 86° ESE 23:13:36 27° SSW
ATLAS 2AS CENTAUR R/B 4.2 23:06:31 10° N 23:12:20 34° ENE 23:18:20 10° SE
Cosmos 158 Rocket 4.1 23:13:54 56° S 23:13:54 56° S 23:17:53 10° SSE
Cosmos 1934 Rocket 3.9 23:19:31 58° W 23:19:33 58° W 23:25:31 10° N
USA 234 4.1 23:16:27 10° SE 23:22:48 48° NE 23:29:04 10° NNW
IRS-P3 4.1 23:20:20 10° N 23:25:29 56° WNW 23:25:29 56° WNW
Cosmos 1727 Rocket 4.4 23:20:56 10° N 23:27:12 65° E 23:33:33 10° SSE
Cosmos 2228 3.3 23:30:36 10° N 23:34:53 68° E 23:39:12 10° SSE
Cosmos 2219 Rocket 2.3 23:34:28 46° W 23:35:09 48° WSW 23:40:40 10° S
Cosmos 2322 3.6 23:30:08 10° NNW 23:35:47 86° WSW 23:41:31 10° SSE
USA 238 DEB 4.4 23:36:45 26° NW 23:36:45 26° NW 23:40:49 10° NNW
USA 238 4.4 23:36:46 27° NW 23:36:46 27° NW 23:40:55 10° NNW
DMSP B5D2-2 4.1 23:32:09 10° S 23:37:17 55° WSW 23:42:21 10° NNW
Cosmos 773 Rocket 3.9 23:33:30 10° NNW 23:38:42 89° WSW 23:44:01 10° SSE
Cosmos 1844 Rocket 3.1 23:41:14 39° W 23:41:48 40° WNW 23:47:02 10° N
OAO 3 Copernicus 4.3 23:41:57 45° WSW 23:43:26 72° S 23:48:30 10° E
Cosmos 1544 2.7 23:45:26 62° NE 23:45:26 62° NE 23:47:53 10° NNE
Cosmos 2360 Rocket 4.1 23:50:10 12° SSW 23:50:10 12° SSW 23:50:54 10° SSW
CZ-2D R/B 4.3 23:43:55 10° NNW 23:46:42 32° NW 23:46:42 32° NW
CZ-2D R/B 3.0 23:44:58 10° N 23:48:32 59° W 23:48:57 54° WSW
Meteor 2-3 Rocket 4.2 23:42:59 10° S 23:48:36 61° E 23:54:09 10° NNE
Cosmos 1844 4.2 23:50:30 33° WSW 23:51:47 37° WNW 23:56:54 10° N
